Terminal Aerodrome Forecast
Issued by NWS Brownsville, TX

Home | Current Version | Previous Version | Text Only | Print | Product List | Glossary On
Versions: 1 2 3 4 5 6 7 8 9 10
000
FTUS44 KBRO 270500
TAFHRL
TAF
KHRL 270520Z 2706/2806 16013KT 6SM BR BKN020
     FM270800 16009KT 4SM BR OVC010
     FM271500 16010KT P6SM BKN015
     FM271800 18014G20KT P6SM OVC025
     FM280000 16006KT P6SM OVC025=

USA.gov is the U.S. government's official web portal to all federal, state and local government web resources and services.